Regional Weather Roundup
Issued by NWS

Home | Current Version | Previous Version | Graphics & Text | Print | Product List | Glossary On
Versions: 1 2 3 4 5 6 7 8 9 10 11 12 13 14 15 16 17 18 19 20 21 22 23 24 25 26 27 28 29 30 31 32 33 34 35 36 37 38 39 40 41 42 43 44 45 46 47 48 49 50
000
ASUS43 KLOT 281700
RWRIL

ILLINOIS REGIONAL WEATHER ROUNDUP
NATIONAL WEATHER SERVICE CHICAGO/ROMEOVILLE IL
1100 AM CST WED JAN 28 2015

NOTE: "FAIR" INDICATES FEW OR NO CLOUDS BELOW 12,000 FEET WITH NO
SIGNIFICANT WEATHER AND/OR OBSTRUCTIONS TO VISIBILITY.

* THESE STATIONS ARE NOT UNDER NWS QUALITY CONTROL. THEY ALSO MAY NOT
  REPORT WEATHER SUCH AS PRECIPITATION OR FOG.

ILZ001-002-007-009-015-016-024-281800-
NORTHWEST ILLINOIS

CITY           SKY/WX    TMP DP  RH WIND       PRES   REMARKS
MOLINE         MOSUNNY   30  22  72 SE14      30.12F WCI  19
STERLING*      MOSUNNY   30  19  64 SE8       30.18F WCI  23
$$

ILZ003-004-008-010-011-017-018-281800-
NORTH CENTRAL ILLINOIS

CITY           SKY/WX    TMP DP  RH WIND       PRES   REMARKS
ROCKFORD       CLOUDY    30  20  66 S20       30.20F WCI  17
$$

ILZ005-006-012>014-019>023-281800-
NORTHEAST ILLINOIS

CITY           SKY/WX    TMP DP  RH WIND       PRES   REMARKS
CHICAGO-OHARE  PTSUNNY   30  14  51 S14       30.23F WCI  19
CHICAGO-MIDWAY PTSUNNY   31  16  54 S13       30.24F WCI  21
AURORA         MOSUNNY   30  20  66 SE14      30.23F WCI  19
WAUKEGAN       MOSUNNY   31  15  52 SE8       30.22F WCI  23
DUPAGE AIRPORT SUNNY     30  18  60 S20       30.22F WCI  17
WHEELING       MOSUNNY   30  13  49 S10       30.25F WCI  21
NORTHERLY ISL    N/A     30  15  53 SE10        N/A  WCI  21
$$

LMZ740>746-281800-
SOUTHERN LAKE MICHIGAN

STATION/POSITION SKY/WX   TEMP    WIND        PRES    VSBY  WAVE
                          AIR SEA DIR/SP/G                  HT/PER
                          (F)     (DEG/KT/KT) (MB)    (MI)  (FT/S)
WAUKEGAN HARBOR            30     160/ 10/ 12   N/A
HARRISON CRIB              26     180/ 18/ 21   N/A
BURNHAM HARBOR             30     150/  9/ 13   N/A
CALUMET HARBOR             29     170/ 11/ 15   N/A
MICHIGAN CITY              26     150/  9/ 13   N/A
$$

ILZ025>027-034>036-040-047-049-050-058-095>099-281800-
WEST-CENTRAL ILLINOIS

CITY           SKY/WX    TMP DP  RH WIND       PRES   REMARKS
QUINCY         SUNNY     37  29  72 SE18      30.08F WCI  27
$$

ILZ028>032-037-038-041>044-048-051>054-059>061-281800-
CENTRAL ILLINOIS

CITY           SKY/WX    TMP DP  RH WIND       PRES   REMARKS
DECATUR        SUNNY     34  26  72 S16       30.24F WCI  24
PEORIA         SUNNY     34  24  67 S17G24    30.19F WCI  23
SPRINGFIELD    SUNNY     36  27  69 S20G29    30.21F WCI  25
TAYLORVILLE    NOT AVBL
$$

ILZ033-039-045-046-055>057-062-063-281800-
EAST-CENTRAL ILLINOIS

CITY           SKY/WX    TMP DP  RH WIND       PRES   REMARKS
CHAMPAIGN      MOSUNNY   31  23  72 S16       30.25F WCI  20
MATTOON        SUNNY     33  23  66 SE17      30.25F WCI  22
$$

ILZ079-100>102-281800-
SOUTHWEST ILLINOIS

CITY           SKY/WX    TMP DP  RH WIND       PRES   REMARKS
BELLEVILLE     SUNNY     38  31  74 SE8G17    30.23F WCI  32
CAHOKIA*       SUNNY     39  30  70 SE13G22   30.22F WCI  31
$$

ILZ064>066-069>071-074>076-080>082-084>086-088>090-092>094-281800-
SOUTH-CENTRAL ILLINOIS

CITY           SKY/WX    TMP DP  RH WIND       PRES   REMARKS
CARBONDALE     MOSUNNY   38  28  67 S13       30.29F WCI  30
MT. VERNON     MOSUNNY   37  28  70 SE14      30.29F WCI  29
$$

ILZ067-068-072-073-078-083-087-091-281800-
SOUTHEAST ILLINOIS

CITY           SKY/WX    TMP DP  RH WIND       PRES   REMARKS
LAWRENCEVILLE  SUNNY     34  24  67 SE12      30.33F WCI  25
$$

ABBREVIATIONS USED IN REMARKS
   TC - TEMPERATURE IN CELSIUS
  WCI - WIND CHILL INDEX
   HX - HEAT INDEX
  VSB - VISIBILITY
$$



USA.gov is the U.S. government's official web portal to all federal, state and local government web resources and services.